User: anonymous   Login
Location: ??
(31.9467°N, 34.8903°E)
Time: 01:13:44
(UTC+00:00)
Language:

Meteor 2-1 Rocket - Orbit

View from above orbital plane
View from above orbital plane
View from above satellite
View from above satellite

Ground track
Ground track

The orbit data is extracted from the following two-line orbital elements,

1  8027U 75064B   21021.53901758  .00000130  00000-0  68701-4 0  9993
2  8027  81.2950 229.7193 0055135 160.1117 200.2220 14.07358937337359
Epoch (UTC): 21 January 2021 12:56:11
Eccentricity: 0.0055135
inclination: 81.2950°
perigee height: 828 km
apogee height: 908 km
right ascension of ascending node: 229.7193°
argument of perigee: 160.1117°
revolutions per day: 14.07358937
mean anomaly at epoch: 200.2220°
orbit number at epoch: 33735

The dashed part of the orbit path shows where the satellite is in the earth's shadow,  

DLR